Lid_Strength_Index
4 4 4 4 4 4 4 4 4 4 5 4 4 4 4 4 4 4 4 4 4 4 4 4 4 4 5 8 10 2 -1 -2 -0 1 3 4 6 6 9 8 7 9 7 6 5 5 5
4 4 4 4 5 5 5 5 5 5 5 5 5 4 4 4 4 4 4 4 4 5 4 4 4 4 7 13 7 5 -0 0 1 2 3 3 5 4 6 7 7 6 6 6 6 5 5
4 4 4 5 5 5 5 5 5 5 5 5 5 5 5 5 5 5 5 5 5 5 4 4 4 5 7 11 6 2 -0 1 1 1 3 2 2 4 5 9 6 8 10 8 8 7 7
3 4 4 4 5 5 5 5 6 6 6 6 6 5 5 5 5 5 6 6 5 3 3 4 3 5 10 7 5 6 0 1 1 0 1 1 2 4 6 7 9 10 10 11 9 8 7
4 4 4 5 5 5 5 5 5 5 5 5 5 6 6 6 6 6 6 6 4 3 3 3 6 6 10 4 7 6 5 3 2 1 3 2 3 5 7 8 10 11 12 11 10 7 6
4 4 4 4 5 4 5 5 5 5 5 5 5 5 6 6 6 7 7 7 5 4 4 4 5 9 8 8 6 6 6 3 4 3 5 5 6 7 8 9 13 13 12 11 11 8 7
4 4 4 4 4 4 4 4 4 4 5 5 5 5 5 6 7 7 8 8 10 10 10 7 7 9 7 6 4 7 7 5 6 6 9 7 9 10 9 8 9 11 11 11 10 8 7
4 4 4 4 4 4 4 4 4 4 4 4 5 5 5 6 6 7 8 11 12 12 14 10 11 10 7 6 8 7 7 9 9 10 8 9 11 8 7 8 9 10 12 11 10 9 8
5 5 5 5 5 5 5 5 5 5 5 5 5 5 5 6 6 8 10 10 9 10 13 12 10 10 9 8 9 8 8 8 9 10 10 10 9 7 8 8 9 9 11 11 11 9 8
5 5 5 5 5 5 5 5 5 5 5 5 5 5 6 6 9 9 11 9 8 9 15 12 12 10 10 8 10 7 6 8 9 10 10 10 8 9 9 9 8 10 8 10 10 11 12
5 5 5 5 5 5 5 5 5 5 5 6 6 6 6 7 9 10 9 8 8 10 17 10 12 8 9 9 9 9 7 7 10 10 9 11 9 9 9 9 7 9 7 9 10 11 11
5 5 6 5 5 5 5 5 5 5 5 5 6 6 7 9 9 8 8 8 10 14 17 11 11 12 11 10 10 9 9 7 7 9 9 9 8 8 8 7 7 6 8 8 8 9 13
6 6 6 5 5 5 5 5 4 4 5 5 6 7 7 8 10 8 8 10 14 17 11 12 12 11 11 12 11 10 10 10 11 12 12 10 10 8 7 9 7 8 9 12 13 13 14
6 5 5 4 4 4 3 3 3 4 4 5 6 7 7 8 7 8 8 13 17 14 14 11 11 11 12 11 11 11 11 12 9 10 11 13 14 10 9 9 10 9 9 13 15 14 13
5 3 3 2 2 2 2 1 1 1 2 3 4 6 8 7 7 8 10 16 15 14 14 14 12 13 13 12 12 12 11 11 9 9 11 12 12 9 9 8 8 10 11 8 11 12 13
3 2 2 1 1 0 -0 -0 -0 -0 -0 1 3 5 5 4 6 7 11 15 13 12 12 12 15 13 15 13 13 13 12 12 11 10 10 10 12 10 9 8 8 9 7 12 11 14 15
2 2 1 0 -0 -0 -0 -0 -0 -0 0 1 4 6 3 2 3 6 12 13 12 10 10 12 14 14 13 14 12 13 13 12 11 11 9 10 11 12 9 10 11 11 11 10 10 11 14
2 1 0 -0 0 -0 -0 -0 0 0 1 2 5 8 2 2 7 7 10 10 8 9 9 11 11 12 13 12 13 13 13 12 11 10 11 11 12 12 11 8 8 9 9 9 12 13 12
1 0 -0 0 0 -0 -0 -0 0 1 1 2 7 7 2 2 10 10 8 8 8 8 9 10 11 10 11 11 13 12 12 10 10 10 11 11 12 13 12 10 9 10 9 9 9 9 12
1 0 0 0 0 0 0 0 1 1 1 2 5 9 6 5 5 8 9 9 9 6 8 8 9 10 11 11 10 13 13 11 10 10 9 10 12 12 13 12 11 12 11 9 10 12 12
0 0 0 1 1 1 1 1 1 1 1 2 5 8 6 9 8 8 8 8 10 10 7 7 10 10 11 12 12 12 13 12 11 10 11 11 14 13 13 13 13 12 12 12 11 10 11
0 0 0 1 1 1 1 1 1 1 2 3 6 7 6 8 7 8 8 9 9 8 8 9 11 10 10 11 11 12 12 12 13 12 12 12 14 13 14 13 13 13 12 12 11 11 11
0 0 0 1 1 0 1 1 1 2 3 4 3 3 6 8 8 9 9 8 8 7 7 7 8 9 10 9 8 8 9 9 12 13 14 14 14 15 16 13 13 15 12 12 11 10 10
0 0 0 0 1 0 1 1 1 1 2 3 4 4 7 10 9 9 8 7 8 7 9 7 6 8 7 5 6 7 8 9 10 12 12 14 14 14 16 15 18 12 9 10 10 9 9
1 0 0 1 1 1 0 2 1 1 2 3 3 5 7 10 8 8 7 7 7 6 7 7 6 5 4 6 9 11 11 10 10 10 13 12 14 15 17 16 14 13 11 9 10 9 7
1 0 1 1 1 1 0 1 2 1 1 3 3 3 5 9 9 6 7 7 9 8 8 7 4 3 5 7 9 13 13 12 13 11 9 12 13 15 16 18 18 12 9 7 8 12 8
1 1 0 0 1 1 0 1 2 1 1 3 4 3 5 9 7 6 8 8 6 8 9 7 7 6 5 9 11 13 13 10 13 13 12 12 15 17 16 17 15 10 8 7 14 11 8
1 0 0 0 1 1 0 1 2 1 1 2 5 4 5 8 7 5 5 6 6 7 10 7 7 7 8 11 12 11 12 10 12 10 11 12 13 15 15 17 19 9 9 11 8 7 7
1 1 1 1 1 1 1 1 2 2 1 2 5 5 4 7 7 4 3 2 3 3 6 6 7 7 7 10 10 10 12 10 11 14 8 12 10 11 11 14 10 8 7 6 5 6 6